• In Uzbekistan
  • List of Countries
  • For 7 days
  • Water Temperature
  • Satellite Maps
  • Weather Map
  • Weather Widgets
  • user-avatar
    Login

    Hourly Weather Bad Herrenalb

    Today, 26 April, Thursday

    Time Temperature Precipitation Wind Pressure Humidity
    00:00 +10°C° 0.1 mm 3 mps 723 mmHg 88%
    01:00 +9°C° 0 mm 2 mps 723 mmHg 86%
    02:00 +9°C° 0 mm 2 mps 723 mmHg 86%
    03:00 +8°C° 0 mm 2 mps 724 mmHg 86%
    04:00 +8°C° 0 mm 2 mps 724 mmHg 85%
    05:00 +8°C° 0 mm 3 mps 724 mmHg 84%
    06:00 +8°C° 0 mm 3 mps 724 mmHg 82%
    07:00 +7°C° 0 mm 4 mps 725 mmHg 81%
    08:00 +8°C° 0 mm 4 mps 725 mmHg 73%
    09:00 +9°C° 0 mm 5 mps 725 mmHg 66%
    10:00 +10°C° 0 mm 5 mps 726 mmHg 58%
    11:00 +12°C° 0 mm 5 mps 726 mmHg 54%
    12:00 +12°C° 0 mm 5 mps 726 mmHg 49%
    13:00 +13°C° 0 mm 5 mps 726 mmHg 45%
    14:00 +13°C° 0 mm 5 mps 725 mmHg 45%
    15:00 +14°C° 0 mm 4 mps 725 mmHg 45%
    16:00 +14°C° 0 mm 4 mps 725 mmHg 44%
    17:00 +12°C° 0 mm 3 mps 725 mmHg 51%
    18:00 +11°C° 0 mm 3 mps 725 mmHg 57%
    19:00 +10°C° 0 mm 2 mps 724 mmHg 63%
    20:00 +9°C° 0 mm 2 mps 725 mmHg 67%
    21:00 +9°C° 0 mm 1 mps 725 mmHg 71%
    22:00 +7°C° 0 mm 1 mps 725 mmHg 75%
    23:00 +7°C° 0 mm 1 mps 724 mmHg 76%

    Tomorrow, 27 April, Friday

    Time Temperature Precipitation Wind Pressure Humidity
    00:00 +7°C° 0 mm 1 mps 724 mmHg 77%
    01:00 +7°C° 0 mm 1 mps 724 mmHg 77%
    02:00 +7°C° 0 mm 1 mps 723 mmHg 77%
    03:00 +6°C° 0 mm 1 mps 723 mmHg 77%
    04:00 +6°C° 0 mm 1 mps 722 mmHg 77%
    05:00 +7°C° 0 mm 1 mps 722 mmHg 74%
    06:00 +8°C° 0 mm 1 mps 721 mmHg 72%
    07:00 +9°C° 0 mm 1 mps 721 mmHg 70%
    08:00 +10°C° 0 mm 2 mps 721 mmHg 64%
    09:00 +13°C° 0 mm 2 mps 720 mmHg 58%
    10:00 +15°C° 0 mm 2 mps 720 mmHg 52%
    11:00 +17°C° 0 mm 2 mps 719 mmHg 49%
    12:00 +18°C° 0 mm 2 mps 719 mmHg 45%
    13:00 +20°C° 0 mm 2 mps 719 mmHg 41%
    14:00 +20°C° 0 mm 3 mps 718 mmHg 40%
    15:00 +21°C° 0 mm 3 mps 718 mmHg 40%
    16:00 +21°C° 0 mm 4 mps 718 mmHg 40%
    17:00 +19°C° 0 mm 3 mps 718 mmHg 46%
    18:00 +17°C° 0 mm 3 mps 718 mmHg 53%
    19:00 +16°C° 0 mm 3 mps 718 mmHg 59%
    20:00 +13°C° 0 mm 3 mps 718 mmHg 63%
    21:00 +13°C° 0 mm 2 mps 719 mmHg 67%
    22:00 +12°C° 0 mm 2 mps 719 mmHg 72%
    23:00 +10°C° 0 mm 2 mps 720 mmHg 75%

    Day after tomorrow, 28 April, Saturday

    Time Temperature Precipitation Wind Pressure Humidity
    00:00 +10°C° 0 mm 2 mps 720 mmHg 78%
    01:00 +9°C° 0 mm 2 mps 720 mmHg 81%
    02:00 +9°C° 0 mm 2 mps 720 mmHg 83%
    03:00 +8°C° 0 mm 2 mps 720 mmHg 86%
    04:00 +7°C° 0 mm 2 mps 721 mmHg 88%
    05:00 +8°C° 0 mm 2 mps 721 mmHg 86%
    06:00 +8°C° 0 mm 2 mps 721 mmHg 83%
    07:00 +9°C° 0 mm 2 mps 721 mmHg 81%
    08:00 +10°C° 0 mm 2 mps 721 mmHg 74%
    09:00 +12°C° 0 mm 2 mps 722 mmHg 67%
    10:00 +13°C° 0 mm 2 mps 722 mmHg 60%
    11:00 +15°C° 0 mm 2 mps 721 mmHg 56%
    12:00 +16°C° 0 mm 2 mps 721 mmHg 52%
    13:00 +19°C° 0 mm 1 mps 721 mmHg 49%
    14:00 +19°C° 0 mm 1 mps 721 mmHg 50%
    15:00 +19°C° 0 mm 1 mps 720 mmHg 50%
    16:00 +19°C° 0 mm 1 mps 720 mmHg 51%
    17:00 +17°C° 0 mm 2 mps 719 mmHg 57%
    18:00 +16°C° 0 mm 2 mps 719 mmHg 62%
    19:00 +15°C° 0 mm 2 mps 719 mmHg 68%
    20:00 +14°C° 0.1 mm 2 mps 719 mmHg 71%
    21:00 +13°C° 0.1 mm 2 mps 719 mmHg 74%
    22:00 +12°C° 0.1 mm 2 mps 719 mmHg 77%
    23:00 +12°C° 0.2 mm 2 mps 719 mmHg 80%

    29 April, Sunday

    Time Temperature Precipitation Wind Pressure Humidity
    00:00 +10°C° 0.2 mm 2 mps 718 mmHg 83%
    01:00 +10°C° 0.2 mm 2 mps 718 mmHg 86%
    02:00 +10°C° 0.1 mm 2 mps 717 mmHg 88%
    03:00 +10°C° 0.1 mm 1 mps 717 mmHg 89%
    04:00 +10°C° 0.1 mm 1 mps 717 mmHg 91%
    05:00 +11°C° 0 mm 1 mps 717 mmHg 89%
    06:00 +11°C° 0 mm 1 mps 716 mmHg 87%
    07:00 +12°C° 0 mm 1 mps 716 mmHg 85%
    08:00 +15°C° 0 mm 1 mps 716 mmHg 77%
    09:00 +18°C° 0 mm 1 mps 716 mmHg 69%
    10:00 +21°C° 0 mm 1 mps 716 mmHg 61%
    11:00 +22°C° 0 mm 1 mps 715 mmHg 56%
    12:00 +23°C° 0 mm 2 mps 715 mmHg 51%
    13:00 +25°C° 0 mm 2 mps 714 mmHg 46%
    14:00 +25°C° 0 mm 3 mps 714 mmHg 45%
    15:00 +25°C° 0 mm 3 mps 713 mmHg 45%
    16:00 +26°C° 0 mm 3 mps 712 mmHg 44%
    17:00 +24°C° 0.3 mm 3 mps 712 mmHg 54%
    18:00 +21°C° 0.3 mm 4 mps 711 mmHg 63%
    19:00 +19°C° 0.3 mm 4 mps 711 mmHg 73%
    20:00 +16°C° 0.4 mm 5 mps 711 mmHg 77%
    21:00 +14°C° 0.4 mm 5 mps 712 mmHg 82%
    22:00 +11°C° 0.4 mm 6 mps 713 mmHg 87%
    23:00 +10°C° 0.3 mm 6 mps 714 mmHg 87%

    30 April, Monday

    Time Temperature Precipitation Wind Pressure Humidity
    00:00 +9°C° 0.3 mm 6 mps 715 mmHg 87%
    01:00 +8°C° 0.3 mm 6 mps 716 mmHg 87%
    02:00 +7°C° 0.1 mm 6 mps 716 mmHg 86%
    03:00 +7°C° 0.1 mm 6 mps 717 mmHg 86%
    04:00 +7°C° 0.1 mm 6 mps 717 mmHg 86%
    05:00 +7°C° 0 mm 6 mps 717 mmHg 83%
    06:00 +5°C° 0 mm 6 mps 717 mmHg 80%
    07:00 +5°C° 0 mm 6 mps 718 mmHg 78%
    08:00 +8°C° 0 mm 7 mps 718 mmHg 69%
    09:00 +9°C° 0 mm 7 mps 718 mmHg 61%
    10:00 +10°C° 0 mm 8 mps 718 mmHg 52%
    11:00 +11°C° 0 mm 8 mps 718 mmHg 51%
    12:00 +11°C° 0 mm 8 mps 718 mmHg 49%
    13:00 +12°C° 0 mm 9 mps 719 mmHg 47%
    14:00 +12°C° 0 mm 8 mps 719 mmHg 47%
    15:00 +12°C° 0 mm 8 mps 719 mmHg 46%
    16:00 +12°C° 0 mm 7 mps 719 mmHg 46%
    17:00 +11°C° 0 mm 6 mps 719 mmHg 51%
    18:00 +10°C° 0 mm 5 mps 719 mmHg 57%
    19:00 +10°C° 0 mm 3 mps 719 mmHg 62%
    20:00 +9°C° 0 mm 3 mps 720 mmHg 67%
    21:00 +8°C° 0 mm 2 mps 720 mmHg 72%
    22:00 +6°C° 0 mm 2 mps 721 mmHg 77%
    23:00 +6°C° 0 mm 2 mps 721 mmHg 79%

    1 May, Tuesday

    Time Temperature Precipitation Wind Pressure Humidity
    00:00 +6°C° 0 mm 2 mps 721 mmHg 82%
    01:00 +6°C° 0 mm 1 mps 721 mmHg 84%
    02:00 +6°C° 0 mm 1 mps 721 mmHg 85%
    03:00 +6°C° 0 mm 1 mps 721 mmHg 86%
    04:00 +6°C° 0 mm 1 mps 721 mmHg 87%
    05:00 +6°C° 0 mm 1 mps 722 mmHg 85%
    06:00 +6°C° 0 mm 1 mps 722 mmHg 82%
    07:00 +6°C° 0 mm 2 mps 722 mmHg 80%
    08:00 +7°C° 0 mm 2 mps 722 mmHg 73%
    09:00 +8°C° 0 mm 2 mps 722 mmHg 66%
    10:00 +9°C° 0 mm 2 mps 722 mmHg 59%
    11:00 +10°C° 0 mm 2 mps 722 mmHg 56%
    12:00 +12°C° 0 mm 2 mps 722 mmHg 52%
    13:00 +13°C° 0 mm 2 mps 722 mmHg 48%
    14:00 +13°C° 0 mm 2 mps 722 mmHg 48%
    15:00 +13°C° 0 mm 3 mps 721 mmHg 47%
    16:00 +13°C° 0 mm 3 mps 721 mmHg 46%
    17:00 +13°C° 0 mm 2 mps 721 mmHg 51%
    18:00 +12°C° 0 mm 2 mps 721 mmHg 56%
    19:00 +9°C° 0 mm 2 mps 721 mmHg 61%
    20:00 +9°C° 0 mm 1 mps 721 mmHg 64%
    21:00 +8°C° 0 mm 1 mps 722 mmHg 68%
    22:00 +7°C° 0 mm 1 mps 722 mmHg 71%
    23:00 +6°C° 0 mm 1 mps 722 mmHg 73%
    Show more